Curtin, Australia

7:41 AM AWST on August 18, 2017 (GMT +0800)
Curtin

Weather History for YCIN - March, 2013

Change the Weather History Date:

Tuesday, March 26, 2013

  Actual Average Record
Temperature  
Mean Temperature 88 °F -  
Max Temperature 98 °F - - ()
Min Temperature 78 °F - - ()
Cooling Degree Days 23    
Growing Degree Days 38 (Base 50)    
Moisture  
Dew Point 75 °F    
Average Humidity 74    
Maximum Humidity 89    
Minimum Humidity 37    
Precipitation  
Precipitation 0.12 in - - ()
Sea Level Pressure  
Sea Level Pressure 29.74 in    
Wind  
Wind Speed 3 mph ()    
Max Wind Speed 7 mph    
Max Gust Speed -    
T = Trace of Precipitation, MM = Missing Value Source: Averaged Metar Reports

Daily Weather History Graph

Daily Weather History Graph

Search for Another Location

Airport or City:

Trip Planner

Search our weather history database for the weather conditions in past years. The results will help you decide how hot, cold, wet, or windy it might be!

Date:

Astronomy

Mar. 26, 2013 Rise Set
Actual Time 5:49 AM AWST 5:50 PM AWST
Civil Twilight 5:28 AM AWST 6:12 PM AWST
Nautical Twilight 5:02 AM AWST 6:37 PM AWST
Astronomical Twilight 4:37 AM AWST 7:02 PM AWST
Moon 4:55 PM AWST (3/26) 4:29 AM AWST (3/26)
Length of Visible Light 12h 44m
Length of Day
12h 01m
Waxing Gibbous, 98% of the Moon is Illuminated
Mar 26
Waxing Gibbous
Mar 27
Full
Apr 3
Last Quarter
Apr 10
New
Apr 18
First Quarter

Hourly Weather History & Observations

Time (AWST) Temp. Heat Index Dew Point Humidity Pressure Visibility Wind Dir Wind Speed Gust Speed Precip Events Conditions
12:00 AM 81 °F - 76 °F 79% 29.77 in - West 4.6 mph - -  
12:00 AM 80.6 °F 86.2 °F 75.2 °F 84% 29.77 in - West 4.6 mph - N/A   Unknown
1:00 AM 78.8 °F - 75.2 °F 89% 29.77 in - Calm Calm - N/A   Unknown
2:00 AM 78.8 °F - 75.2 °F 89% 29.77 in - Calm Calm - N/A   Unknown
3:00 AM 79 °F - 75 °F 85% 29.74 in - Calm Calm - -  
3:00 AM 78.8 °F - 75.2 °F 89% 29.74 in - Calm Calm - N/A   Unknown
4:00 AM 78.8 °F - 75.2 °F 89% 29.74 in - WSW 3.5 mph - N/A   Unknown
5:00 AM 78.8 °F - 75.2 °F 89% 29.74 in - WSW 3.5 mph - N/A   Unknown
6:00 AM 78 °F - 75 °F 88% 29.75 in - WSW 3.5 mph - -  
6:00 AM 78.8 °F - 75.2 °F 89% 29.77 in - WSW 3.5 mph - N/A   Unknown
7:00 AM 82.4 °F 90.9 °F 77.0 °F 84% 29.77 in - WSW 4.6 mph - N/A   Unknown
8:00 AM 86.0 °F 99.3 °F 78.8 °F 79% 29.80 in - West 6.9 mph - N/A   Unknown
9:00 AM 89 °F - 75 °F 56% 29.79 in - WSW 6.9 mph - -  
9:00 AM 89.6 °F 99.8 °F 75.2 °F 62% 29.80 in - WSW 6.9 mph - N/A   Unknown
10:00 AM 91.4 °F 102.5 °F 75.2 °F 59% 29.80 in - West 5.8 mph - N/A   Unknown
11:00 AM 93.2 °F 105.0 °F 75.2 °F 56% 29.77 in - West 4.6 mph - N/A   Unknown
12:00 PM 95 °F - 76 °F 45% 29.73 in - SW 5.8 mph - -  
12:00 PM 95.0 °F 107.4 °F 75.2 °F 53% 29.74 in - SW 5.8 mph - N/A   Unknown
1:00 PM 96.8 °F 107.3 °F 73.4 °F 47% 29.68 in - WSW 5.8 mph - N/A   Unknown
2:00 PM 95.0 °F 107.4 °F 75.2 °F 53% 29.68 in - SSE 4.6 mph - N/A   Unknown
3:00 PM 96 °F - 72 °F 37% 29.64 in - West 4.6 mph - -  
3:00 PM 95.0 °F 103.2 °F 71.6 °F 47% 29.65 in - West 4.6 mph - N/A   Unknown
4:00 PM 86.0 °F 99.3 °F 78.8 °F 79% 29.68 in - North 5.8 mph - N/A   Unknown
5:00 PM 86.0 °F 99.3 °F 78.8 °F 79% 29.71 in - NW 6.9 mph - N/A   Unknown
6:00 PM 86 °F - 76 °F 65% 29.73 in - West 6.9 mph - -  
6:00 PM 86.0 °F 95.1 °F 75.2 °F 70% 29.74 in - West 6.9 mph - N/A   Unknown
7:00 PM 82.4 °F 89.5 °F 75.2 °F 79% 29.74 in - WSW 3.5 mph - N/A   Unknown
8:00 PM 80.6 °F 86.2 °F 75.2 °F 84% 29.77 in - SW 1.2 mph - N/A   Unknown
9:00 PM 80 °F - 77 °F 89% 29.77 in - Calm Calm - -  
9:00 PM 80.6 °F 87.1 °F 77.0 °F 89% 29.77 in - Calm Calm - N/A   Unknown
10:00 PM 78.8 °F - 75.2 °F 89% 29.77 in - WNW 3.5 mph - N/A   Unknown
11:00 PM 78.8 °F - 75.2 °F 89% 29.74 in - Calm Calm - N/A   Unknown